Regional Weather Roundup
Issued by NWS

Home | Current Version | Previous Version | Graphics & Text | Print | Product List | Glossary On
Versions: 1 2 3 4 5 6 7 8 9 10 11 12 13 14 15 16 17 18 19 20 21 22 23 24 25 26 27
000
ASUS45 KCYS 210510
RWRWY

WYOMING REGIONAL WEATHER ROUNDUP
NATIONAL WEATHER SERVICE CHEYENNE WY
1000 PM MST MON FEB 20 2017

NOTE:  "FAIR" INDICATES FEW OR NO CLOUDS BELOW 12,000 FEET
WITH NO SIGNIFICANT WEATHER AND/OR OBSTRUCTIONS TO VISIBILITY.

WYZ001-210600-
YELLOWSTONE NATIONAL PARK

CITY           SKY/WX    TMP DP  RH WIND       PRES   REMARKS
LK YELLOWSTONE   N/A     31  31 100 CALM      29.90R
W YELLOWSTONE  NOT AVBL

$$
WYZ002>013-054>058-071-098>099-210600-
NORTHERN WYOMING

CITY           SKY/WX    TMP DP  RH WIND       PRES   REMARKS
JACKSON        MOCLDY    34  34 100 SW12      29.92S WCI  25
CODY           FAIR      41  30  65 VRB3      29.79F
GREYBULL       FAIR      41  30  65 E8        29.80R
WORLAND        FAIR      42  32  67 S9        29.80F
SHERIDAN       FAIR      56  26  31 S6G21     29.72S
BUFFALO        FAIR      52  26  36 SW36G53   29.75R
GILLETTE       FAIR      49  30  48 SW35G47   29.75F
HULETT         FAIR      50  30  46 SW17      29.79R
NEWCASTLE      FAIR      46  30  53 SE8       29.89R

$$
WYZ014>020-022>026-101>103-210600-
CENTRAL WYOMING

CITY           SKY/WX    TMP DP  RH WIND       PRES   REMARKS
BIG PINEY      LGT SNOW  31  30  96 S8        29.99F WCI  23
PINEDALE       FLURRIES  32  32 100 SE9       30.01F WCI  24
DUBOIS         MOCLDY    34  28  80 NW8       29.90S WCI  27
LANDER         FAIR      41  29  62 SE14      29.89S
RIVERTON       FAIR      40  30  67 S10       29.91S WCI  33
CASPER         FAIR      44  30  57 SW30G38   29.96S
DOUGLAS        FAIR      50  26  39 W32G44    29.90S

$$
WYZ021-027>030-104>119-210600-
SOUTHERN WYOMING

CITY           SKY/WX    TMP DP  RH WIND       PRES   REMARKS
EVANSTON       LGT RAIN  37  31  78 SW33G41   30.01R WCI  24
KEMMERER         N/A     34  32  93 SW22      30.02S WCI  22
FORT BRIDGER   MOCLDY    36  34  92 S7        30.04R WCI  30
ROCK SPRINGS   FAIR      39  29  67 SW20      30.04R WCI  29
DIXON            N/A     41  31  67 S10G18    30.16S
RAWLINS        FAIR      40  28  62 SW33G46   30.03R WCI  28
SARATOGA       FAIR      41  25  52 SE6G18    30.07F
LARAMIE        FAIR      38  19  46 SW14      30.03F WCI  30
CHEYENNE       FAIR      39  16  39 S6        29.98F WCI  35
TORRINGTON     FAIR      49  19  30 SW7       29.92S
PINE BLUFFS    FAIR      34  16  47 S8        30.00S WCI  27

$$




USA.gov is the U.S. government's official web portal to all federal, state and local government web resources and services.